Find OneWeb SL0353

NORAD ID: 49282 Int'l Des: 2021-090 Owner: ONEWEBN Country: UK Constellation: oneweb operational
LEOCIRCULARPOLARONEWEB_TYPE

リアルタイム位置

3D地球を読み込み中...

OneWeb SL0353について

説明を読み込み中...

次回通過

Passes for default location (London). Set your location on the main map for personalized predictions.

高度履歴

Loading altitude history...

軌道要素

1 49282U 21090D 26125.58474771 -.00000154 00000-0 -44974-3 0 9999
2 49282 87.8929 298.2051 0001958 87.0003 273.1351 13.14503345221981
Epoch: May 5, 2026 • Age: 18 hours

現在のステータス

高度 1219.2 km
速度 7.24 km/s
衛星直下点 -33.62°S, 49.52°W
打ち上げ日 Oct 14, 2021
運用期間 4.5 years
タイプ internet

技術仕様

分類 Payload
質量 148.00 kg
乾燥質量 140.00 kg
総質量 148.00 kg
長さ 1.30 m
直径 1.00 m
スパン 5.00 m
形状 Trapezoid+2 pan
製造者 ONEWUS
バスタイプ ARROW
フェーズステータス In Orbit
所有者/国 ONEWEBN/UK

Most Searched